星链-6335 (STARLINK-6335 )

导读

STARLINK-6335是美国SpaceX星链星座的一员,于2023年5月14日发射升空,属于星链低轨互联网通信卫星。该卫星运行在约550公里近地轨道,采用平板设计,配备氪工质霍尔推进器与自主避撞系统,依托Ku/Ka波段通信技术,为全球提供低时延宽带互联网接入服务,设计寿命约5-7年,退役后会再入大气层焚毁。

基本信息
目录编号:
56527
目录名称:
STARLINK-6335
国际标识:
2023-065AA
轨道中心:
EARTH
卫星名称:
星链-6335
卫星全名:
星链-6335 (STARLINK-6335 )
卫星状态:
在轨 (已飞行1209 天)
发射日期:
2023-05-14 UTC
国别 :
美国 (US)
星等 :
--
轨道信息
数据来源 国际轨道数据
星历时间: 2026-09-04T10:33:52+0800
10小时前
查看轨道信息
半长轴: 6861.19km
偏心率: 0.0001598
轨道倾角: 43.005°
近地点辐角 285.372°
升交点赤经 288.496°
平近点角 74.696°
近地点: 481.956km
远地点: 484.15km
周期: 94.267分钟
每日圈数: 15.275787
详细信息
固有亮度:
5
最大亮度:
2.5
卫星平台:
Starlink v1.5
覆盖范围:
全球
运营商:
太空探索技术公司
运营商所在国:
美国
制造商(研发单位):
太空探索技术公司
制造商所在国:
美国
使用方式:
暂无
卫星简介
星链(Starlink)计划是由太空探索技术公司(SpaceX)提出的一个巨型低轨卫星互联网星座项目,计划在2019年至2024年间在太空搭建由约1.2万颗卫星组成的“星链”网络,其中1584颗将部署在地球上空550千米处的近地轨道,并从2020年开始工作。该卫星仍在工作。
2D轨道图
3D轨道图
轨道高度分析图
轨道倾角分析图
轨道综合分析图
查看轨道综合分析图